This demonstration page uses our WeatherBlox Daily Observations layout. Learn more.

Left ArrowRight Arrow

38.88101, -77.10428

Hourly Observations for December 9, 2020

Temp ( °F °C ) Dew Point ( °F °C ) Humidity (%) Winds ( mph kmh ) Pressure ( in mb ) Visibility ( mi km ) Precip ( " mm )
12:52 am 00:52 Clear 34 1.1 20 -6.7 56 56 WNW 6 9 30.00 1016 10 16 0.00 0.00
1:52 am 01:52 Clear 34 1.1 20 -6.7 56 56 NW 7 11 30.00 1016 10 16 0.00 0.00
2:52 am 02:52 Clear 33 0.6 20 -6.7 58 58 NW 7 11 29.99 1016 10 16 0.00 0.00
3:52 am 03:52 Mostly Cloudy 32 0 21 -6.1 64 64 SSW 6 9 29.95 1014 10 16 0.00 0.00
4:52 am 04:52 Mostly Cloudy 32 0 21 -6.1 64 64 SW 3 6 29.94 1014 10 16 0.00 0.00
5:52 am 05:52 Mostly Cloudy 31 -0.6 21 -6.1 67 67 WSW 5 7 29.95 1014 10 16 0.00 0.00
6:52 am 06:52 Cloudy 31 -0.6 22 -5.6 69 69 SSW 5 7 29.97 1015 10 16 0.00 0.00
7:52 am 07:52 Cloudy 32 0 22 -5.6 66 66 SSW 8 13 29.94 1014 10 16 0.00 0.00
8:52 am 08:52 Cloudy 33 0.6 24 -4.4 70 70 SW 6 9 29.95 1014 10 16 0.00 0.00
9:52 am 09:52 Cloudy 37 2.8 25 -3.9 62 62 SSW 6 9 29.93 1014 10 16 0.00 0.00
10:52 am 10:52 Cloudy 39 3.9 26 -3.3 60 60 S 10 17 29.90 1013 10 16 0.00 0.00
11:52 am 11:52 Cloudy 41 5 25 -3.9 53 53 S 6 9 29.87 1012 10 16 0.00 0.00
12:52 pm 12:52 Cloudy 41 5 26 -3.3 55 55 S 7 11 29.83 1010 10 16 0.00 0.00
1:52 pm 13:52 Mostly Cloudy 43 6.1 27 -2.8 53 53 S 10 17 29.80 1009 10 16 0.00 0.00
2:52 pm 14:52 Mostly Cloudy 43 6.1 28 -2.2 56 56 S 10 17 29.79 1009 10 16 0.00 0.00
3:52 pm 15:52 Mostly Cloudy 44 6.7 26 -3.3 49 49 SSW 7 11 29.80 1009 10 16 0.00 0.00
4:52 pm 16:52 Partly Cloudy 42 5.6 25 -3.9 51 51 SSW 5 7 29.82 1010 10 16 0.00 0.00
5:52 pm 17:52 Partly Cloudy 42 5.6 30 -1.1 62 62 Calm 29.85 1011 10 16 0.00 0.00
6:52 pm 18:52 Partly Cloudy 39 3.9 29 -1.7 67 67 Calm 29.88 1012 10 16 0.00 0.00
7:52 pm 19:52 Partly Cloudy 39 3.9 28 -2.2 65 65 VRB 3 6 29.90 1013 10 16 0.00 0.00
8:52 pm 20:52 Partly Cloudy 37 2.8 29 -1.7 73 73 Calm 29.92 1013 10 16 0.00 0.00
9:52 pm 21:52 Partly Cloudy 37 2.8 29 -1.7 73 73 Calm 29.93 1014 10 16 0.00 0.00
10:52 pm 22:52 Mostly Clear 36 2.2 28 -2.2 73 73 SW 5 7 29.94 1014 10 16 0.00 0.00
11:52 pm 23:52 Clear 34 1.1 28 -2.2 79 79 SSW 3 6 29.95 1014 10 16 0.00 0.00

Powered by AerisWeather